Time,TemperatureF,DewpointF,PressureIn,WindDirection,WindDirectionDegrees,WindSpeedMPH,WindSpeedGustMPH,Humidity,HourlyPrecipIn,Conditions,Clouds,dailyrainin,SoftwareType,DateUTC
2013-06-14 00:03:00,66.2,30.3,29.93,ESE,113,0.0,0.0,26,0.00,CLR,,0.00,WeatherDisplay:10.37,2013-06-14 07:03:00,
2013-06-14 00:08:00,65.7,29.8,29.93,ESE,113,0.0,0.0,26,0.00,CLR,,0.00,WeatherDisplay:10.37,2013-06-14 07:08:00,
2013-06-14 00:13:00,65.4,29.6,29.93,ESE,113,0.0,0.0,26,0.00,CLR,,0.00,WeatherDisplay:10.37,2013-06-14 07:13:00,
2013-06-14 00:18:00,65.1,30.3,29.93,ESE,113,0.0,0.0,27,0.00,CLR,,0.00,WeatherDisplay:10.37,2013-06-14 07:18:00,
2013-06-14 00:23:00,64.9,30.1,29.93,ESE,113,0.0,0.0,27,0.00,CLR,,0.00,WeatherDisplay:10.37,2013-06-14 07:23:00,
2013-06-14 00:28:00,64.8,30.0,29.93,ESE,113,3.0,3.0,27,0.00,CLR,,0.00,WeatherDisplay:10.37,2013-06-14 07:28:00,
2013-06-14 00:33:00,64.9,30.1,29.93,ESE,113,3.5,3.5,27,0.00,CLR,,0.00,WeatherDisplay:10.37,2013-06-14 07:33:00,
2013-06-14 00:38:00,65.2,30.3,29.93,ESE,113,0.0,0.0,27,0.00,CLR,,0.00,WeatherDisplay:10.37,2013-06-14 07:38:00,
2013-06-14 00:43:00,65.4,30.5,29.93,ESE,113,0.0,0.0,27,0.00,CLR,,0.00,WeatherDisplay:10.37,2013-06-14 07:43:00,
2013-06-14 00:48:00,65.4,30.5,29.92,ESE,113,0.0,0.0,27,0.00,CLR,,0.00,WeatherDisplay:10.37,2013-06-14 07:48:00,
2013-06-14 00:53:00,65.0,30.2,29.92,ESE,113,0.0,0.0,27,0.00,CLR,,0.00,WeatherDisplay:10.37,2013-06-14 07:53:00,
2013-06-14 00:58:00,64.8,30.9,29.92,ESE,113,3.5,3.5,28,0.00,CLR,,0.00,WeatherDisplay:10.37,2013-06-14 07:58:00,
2013-06-14 01:03:00,65.0,30.2,29.92,ESE,113,3.5,3.5,27,0.00,CLR,,0.00,WeatherDisplay:10.37,2013-06-14 08:03:00,
2013-06-14 01:08:00,65.3,30.4,29.92,ESE,113,0.0,0.0,27,0.00,CLR,,0.00,WeatherDisplay:10.37,2013-06-14 08:08:00,
2013-06-14 01:13:00,65.8,30.9,29.91,ESE,113,4.6,4.6,27,0.00,CLR,,0.00,WeatherDisplay:10.37,2013-06-14 08:13:00,
2013-06-14 01:18:00,65.9,30.9,29.91,ESE,113,3.5,3.5,27,0.00,CLR,,0.00,WeatherDisplay:10.37,2013-06-14 08:18:00,
2013-06-14 01:23:00,65.6,29.8,29.91,ESE,113,3.5,3.6,26,0.00,CLR,,0.00,WeatherDisplay:10.37,2013-06-14 08:23:00,
2013-06-14 01:28:00,64.9,29.2,29.91,ESE,113,4.0,4.0,26,0.00,CLR,,0.00,WeatherDisplay:10.37,2013-06-14 08:28:00,
2013-06-14 01:33:00,64.4,28.7,29.91,ESE,113,3.5,3.5,26,0.00,CLR,,0.00,WeatherDisplay:10.37,2013-06-14 08:33:00,
2013-06-14 01:38:00,64.2,29.5,29.92,ESE,113,3.5,3.5,27,0.00,CLR,,0.00,WeatherDisplay:10.37,2013-06-14 08:38:00,
2013-06-14 01:43:00,64.0,29.3,29.92,ESE,113,0.0,0.0,27,0.00,CLR,,0.00,WeatherDisplay:10.37,2013-06-14 08:43:00,
2013-06-14 01:48:00,63.7,29.1,29.92,ESE,113,0.0,0.0,27,0.00,CLR,,0.00,WeatherDisplay:10.37,2013-06-14 08:48:00,
2013-06-14 01:53:00,63.6,29.0,29.92,ESE,113,0.0,0.1,27,0.00,CLR,,0.00,WeatherDisplay:10.37,2013-06-14 08:53:00,
2013-06-14 01:58:00,63.4,28.8,29.92,ESE,113,0.0,0.0,27,0.00,CLR,,0.00,WeatherDisplay:10.37,2013-06-14 08:58:00,
2013-06-14 02:03:00,63.4,29.7,29.91,ESE,113,0.0,0.0,28,0.00,CLR,,0.00,WeatherDisplay:10.37,2013-06-14 09:03:00,
2013-06-14 02:08:00,63.3,29.6,29.91,ESE,113,0.0,0.0,28,0.00,CLR,,0.00,WeatherDisplay:10.37,2013-06-14 09:08:00,
2013-06-14 02:13:00,63.3,28.7,29.91,ESE,113,0.0,0.0,27,0.00,CLR,,0.00,WeatherDisplay:10.37,2013-06-14 09:13:00,
2013-06-14 02:18:00,63.1,29.4,29.91,ESE,113,0.0,0.0,28,0.00,CLR,,0.00,WeatherDisplay:10.37,2013-06-14 09:18:00,
2013-06-14 02:23:00,63.2,29.5,29.91,ESE,113,2.3,2.3,28,0.00,CLR,,0.00,WeatherDisplay:10.37,2013-06-14 09:23:00,
2013-06-14 02:28:00,63.1,28.5,29.91,ESE,113,3.5,3.5,27,0.00,CLR,,0.00,WeatherDisplay:10.37,2013-06-14 09:28:00,
2013-06-14 02:33:00,63.2,29.5,29.91,ESE,113,4.0,4.0,28,0.00,CLR,,0.00,WeatherDisplay:10.37,2013-06-14 09:33:00,
2013-06-14 02:38:00,63.7,29.1,29.91,ESE,113,3.5,3.5,27,0.00,CLR,,0.00,WeatherDisplay:10.37,2013-06-14 09:38:00,
2013-06-14 02:43:00,63.4,29.7,29.91,ESE,113,0.0,0.0,28,0.00,CLR,,0.00,WeatherDisplay:10.37,2013-06-14 09:43:00,
2013-06-14 02:48:00,63.4,29.7,29.91,ESE,113,0.0,0.0,28,0.00,CLR,,0.00,WeatherDisplay:10.37,2013-06-14 09:48:00,
2013-06-14 02:53:00,63.2,29.5,29.91,ESE,113,0.0,0.0,28,0.00,CLR,,0.00,WeatherDisplay:10.37,2013-06-14 09:53:00,
2013-06-14 02:58:00,62.9,28.4,29.91,ESE,113,0.0,0.0,27,0.00,CLR,,0.00,WeatherDisplay:10.37,2013-06-14 09:58:00,
2013-06-14 03:03:00,62.7,30.0,29.91,ESE,113,3.0,3.0,29,0.00,CLR,,0.00,WeatherDisplay:10.37,2013-06-14 10:03:00,
2013-06-14 03:08:00,62.9,31.0,29.91,SSE,155,3.5,3.5,30,0.00,CLR,,0.00,WeatherDisplay:10.37,2013-06-14 10:08:00,
2013-06-14 03:13:00,62.9,31.0,29.92,SSE,155,4.6,4.6,30,0.00,CLR,,0.00,WeatherDisplay:10.37,2013-06-14 10:13:00,
2013-06-14 03:18:00,63.0,31.0,29.92,SSE,155,6.0,6.0,30,0.00,CLR,,0.00,WeatherDisplay:10.37,2013-06-14 10:18:00,
2013-06-14 03:23:00,63.2,31.2,29.91,SSE,155,5.8,5.8,30,0.00,CLR,,0.00,WeatherDisplay:10.37,2013-06-14 10:23:00,
2013-06-14 03:28:00,62.8,30.9,29.91,SSE,158,8.1,8.1,30,0.00,CLR,,0.00,WeatherDisplay:10.37,2013-06-14 10:28:00,
2013-06-14 03:33:00,62.8,30.0,29.91,SSW,201,6.0,6.0,29,0.00,CLR,,0.00,WeatherDisplay:10.37,2013-06-14 10:33:00,
2013-06-14 03:38:00,62.9,30.1,29.91,SSW,201,6.9,6.9,29,0.00,CLR,,0.00,WeatherDisplay:10.37,2013-06-14 10:38:00,
2013-06-14 03:43:00,63.5,30.6,29.91,WSW,250,13.8,13.8,29,0.00,CLR,,0.00,WeatherDisplay:10.37,2013-06-14 10:43:00,
2013-06-14 03:48:00,63.9,31.0,29.91,WSW,250,6.9,6.9,29,0.00,CLR,,0.00,WeatherDisplay:10.37,2013-06-14 10:48:00,
2013-06-14 03:53:00,63.4,31.4,29.91,SW,234,10.4,10.4,30,0.00,CLR,,0.00,WeatherDisplay:10.37,2013-06-14 10:53:00,
2013-06-14 03:58:00,63.7,32.5,29.91,West,267,11.5,11.5,31,0.00,CLR,,0.00,WeatherDisplay:10.37,2013-06-14 10:58:00,
2013-06-14 04:03:00,64.7,32.5,29.91,SW,218,9.2,9.2,30,0.00,CLR,,0.00,WeatherDisplay:10.37,2013-06-14 11:03:00,
2013-06-14 04:08:00,64.0,34.3,29.91,SW,215,9.2,9.2,33,0.00,CLR,,0.00,WeatherDisplay:10.37,2013-06-14 11:08:00,
2013-06-14 04:13:00,63.2,33.6,29.91,SSW,211,8.1,8.1,33,0.00,CLR,,0.00,WeatherDisplay:10.37,2013-06-14 11:13:00,
2013-06-14 04:18:00,62.9,33.3,29.91,SSW,210,9.2,9.2,33,0.00,CLR,,0.00,WeatherDisplay:10.37,2013-06-14 11:18:00,
2013-06-14 04:23:00,62.7,33.2,29.91,SSW,211,10.4,10.4,33,0.00,CLR,,0.00,WeatherDisplay:10.37,2013-06-14 11:23:00,
2013-06-14 04:28:00,62.2,32.7,29.91,WSW,248,12.7,12.7,33,0.00,CLR,,0.00,WeatherDisplay:10.37,2013-06-14 11:28:00,
2013-06-14 04:33:00,61.6,32.9,29.91,WSW,251,11.5,11.5,34,0.00,CLR,,0.00,WeatherDisplay:10.37,2013-06-14 11:33:00,
2013-06-14 04:38:00,61.1,32.5,29.91,WSW,249,10.0,10.0,34,0.00,CLR,,0.00,WeatherDisplay:10.37,2013-06-14 11:38:00,
2013-06-14 04:43:00,60.6,32.8,29.92,West,275,11.5,11.5,35,0.00,CLR,,0.00,WeatherDisplay:10.37,2013-06-14 11:43:00,
2013-06-14 04:48:00,60.5,33.4,29.92,West,263,9.2,9.2,36,0.00,CLR,,0.00,WeatherDisplay:10.37,2013-06-14 11:48:00,
2013-06-14 04:53:00,60.5,33.4,29.92,West,265,11.5,11.5,36,0.00,CLR,,0.00,WeatherDisplay:10.37,2013-06-14 11:53:00,
2013-06-14 04:58:00,60.5,33.4,29.92,West,274,9.2,9.2,36,0.00,CLR,,0.00,WeatherDisplay:10.37,2013-06-14 11:58:00,
2013-06-14 05:03:00,61.1,33.9,29.92,West,265,10.4,10.4,36,0.00,CLR,,0.00,WeatherDisplay:10.37,2013-06-14 12:03:00,
2013-06-14 05:08:00,61.0,33.8,29.92,WSW,253,11.5,11.5,36,0.00,CLR,,0.00,WeatherDisplay:10.37,2013-06-14 12:08:00,
2013-06-14 05:13:00,61.0,34.5,29.92,WNW,293,11.5,11.5,37,0.00,CLR,,0.00,WeatherDisplay:10.37,2013-06-14 12:13:00,
2013-06-14 05:18:00,61.1,33.9,29.92,West,268,11.5,11.5,36,0.00,CLR,,0.00,WeatherDisplay:10.37,2013-06-14 12:18:00,
2013-06-14 05:23:00,61.2,33.3,29.92,WNW,288,12.7,12.7,35,0.00,CLR,,0.00,WeatherDisplay:10.37,2013-06-14 12:23:00,
2013-06-14 05:28:00,60.9,33.0,29.92,WSW,258,10.4,10.4,35,0.00,CLR,,0.00,WeatherDisplay:10.37,2013-06-14 12:28:00,
2013-06-14 05:33:00,60.5,32.7,29.92,SW,234,6.9,6.9,35,0.00,CLR,,0.00,WeatherDisplay:10.37,2013-06-14 12:33:00,
2013-06-14 05:38:00,59.9,32.2,29.92,WSW,250,7.0,7.0,35,0.00,CLR,,0.00,WeatherDisplay:10.37,2013-06-14 12:38:00,
2013-06-14 05:43:00,59.6,31.9,29.92,West,276,9.2,9.2,35,0.00,CLR,,0.00,WeatherDisplay:10.37,2013-06-14 12:43:00,
2013-06-14 05:48:00,59.7,32.0,29.92,West,260,7.0,7.0,35,0.00,CLR,,0.00,WeatherDisplay:10.37,2013-06-14 12:48:00,
2013-06-14 05:53:00,59.7,31.3,29.92,West,273,5.8,5.8,34,0.00,CLR,,0.00,WeatherDisplay:10.37,2013-06-14 12:53:00,
2013-06-14 05:58:00,59.5,31.1,29.92,West,264,4.6,4.6,34,0.00,CLR,,0.00,WeatherDisplay:10.37,2013-06-14 12:58:00,
2013-06-14 06:03:00,59.3,31.6,29.93,WSW,257,9.2,9.2,35,0.00,CLR,,0.00,WeatherDisplay:10.37,2013-06-14 13:03:00,
2013-06-14 06:08:00,59.5,31.8,29.93,WSW,256,10.4,10.4,35,0.00,CLR,,0.00,WeatherDisplay:10.37,2013-06-14 13:08:00,
2013-06-14 06:13:00,59.6,31.2,29.93,West,270,10.4,10.4,34,0.00,CLR,,0.00,WeatherDisplay:10.37,2013-06-14 13:13:00,
2013-06-14 06:18:00,59.6,31.2,29.93,West,265,10.4,10.4,34,0.00,CLR,,0.00,WeatherDisplay:10.37,2013-06-14 13:18:00,
2013-06-14 06:23:00,59.6,30.4,29.93,West,272,10.4,10.4,33,0.00,CLR,,0.00,WeatherDisplay:10.37,2013-06-14 13:23:00,
2013-06-14 06:28:00,59.9,30.7,29.93,West,263,6.9,6.9,33,0.00,CLR,,0.00,WeatherDisplay:10.37,2013-06-14 13:28:00,
2013-06-14 06:33:00,60.6,31.3,29.93,West,261,10.4,10.4,33,0.00,CLR,,0.00,WeatherDisplay:10.37,2013-06-14 13:33:00,
2013-06-14 06:38:00,61.3,32.7,29.93,WNW,284,12.7,12.7,34,0.00,CLR,,0.00,WeatherDisplay:10.37,2013-06-14 13:38:00,
2013-06-14 06:43:00,61.8,33.1,29.93,West,269,11.5,11.5,34,0.00,CLR,,0.00,WeatherDisplay:10.37,2013-06-14 13:43:00,
2013-06-14 06:48:00,62.2,32.7,29.93,WSW,252,10.0,10.0,33,0.00,CLR,,0.00,WeatherDisplay:10.37,2013-06-14 13:48:00,
2013-06-14 06:53:00,62.5,33.0,29.93,West,272,11.5,11.5,33,0.00,CLR,,0.00,WeatherDisplay:10.37,2013-06-14 13:53:00,
2013-06-14 06:58:00,62.9,33.3,29.93,West,263,10.4,10.4,33,0.00,CLR,,0.00,WeatherDisplay:10.37,2013-06-14 13:58:00,
2013-06-14 07:03:00,63.2,33.6,29.94,West,259,11.5,11.5,33,0.00,CLR,,0.00,WeatherDisplay:10.37,2013-06-14 14:03:00,
2013-06-14 07:08:00,63.5,33.9,29.94,WSW,249,5.8,6.0,33,0.00,CLR,,0.00,WeatherDisplay:10.37,2013-06-14 14:08:00,
2013-06-14 07:13:00,63.9,33.4,29.94,WSW,250,11.5,11.5,32,0.00,CLR,,0.00,WeatherDisplay:10.37,2013-06-14 14:13:00,
2013-06-14 07:18:00,64.2,33.7,29.94,West,271,11.5,11.5,32,0.00,CLR,,0.00,WeatherDisplay:10.37,2013-06-14 14:18:00,
2013-06-14 07:23:00,64.7,34.1,29.94,WSW,248,10.4,10.4,32,0.00,CLR,,0.00,WeatherDisplay:10.37,2013-06-14 14:23:00,
2013-06-14 07:28:00,65.3,33.9,29.94,West,267,11.5,11.5,31,0.00,CLR,,0.00,WeatherDisplay:10.37,2013-06-14 14:28:00,
2013-06-14 07:33:00,65.8,34.3,29.94,West,275,6.9,6.9,31,0.00,CLR,,0.00,WeatherDisplay:10.37,2013-06-14 14:33:00,
2013-06-14 07:38:00,66.5,34.1,29.94,West,279,6.9,6.9,30,0.00,CLR,,0.00,WeatherDisplay:10.37,2013-06-14 14:38:00,
2013-06-14 07:43:00,67.2,33.8,29.94,West,279,10.4,10.4,29,0.00,CLR,,0.00,WeatherDisplay:10.37,2013-06-14 14:43:00,
2013-06-14 07:48:00,68.0,33.7,29.94,West,276,8.1,8.1,28,0.00,CLR,,0.00,WeatherDisplay:10.37,2013-06-14 14:48:00,
2013-06-14 07:53:00,68.8,34.3,29.94,West,268,6.0,6.0,28,0.00,CLR,,0.00,WeatherDisplay:10.37,2013-06-14 14:53:00,
2013-06-14 07:58:00,69.3,32.9,29.94,WSW,250,5.8,5.8,26,0.00,CLR,,0.00,WeatherDisplay:10.37,2013-06-14 14:58:00,
2013-06-14 08:03:00,69.9,34.4,29.94,WSW,250,7.0,7.0,27,0.00,CLR,,0.00,WeatherDisplay:10.37,2013-06-14 15:03:00,
2013-06-14 08:08:00,70.6,34.0,29.94,SW,221,6.9,6.9,26,0.00,CLR,,0.00,WeatherDisplay:10.37,2013-06-14 15:08:00,
2013-06-14 08:13:00,71.3,33.6,29.94,WSW,251,6.9,6.9,25,0.00,CLR,,0.00,WeatherDisplay:10.37,2013-06-14 15:13:00,
2013-06-14 08:18:00,71.6,32.9,29.94,WSW,250,5.8,5.8,24,0.00,CLR,,0.00,WeatherDisplay:10.37,2013-06-14 15:18:00,
2013-06-14 08:23:00,72.1,34.3,29.94,WSW,250,6.0,6.0,25,0.00,CLR,,0.00,WeatherDisplay:10.37,2013-06-14 15:23:00,
2013-06-14 08:28:00,72.6,33.7,29.94,SW,236,6.9,6.9,24,0.00,CLR,,0.00,WeatherDisplay:10.37,2013-06-14 15:28:00,
2013-06-14 08:33:00,73.0,34.1,29.94,WSW,249,5.8,5.8,24,0.00,CLR,,0.00,WeatherDisplay:10.37,2013-06-14 15:33:00,
2013-06-14 08:38:00,73.6,34.6,29.94,WSW,244,4.6,4.6,24,0.00,CLR,,0.00,WeatherDisplay:10.37,2013-06-14 15:38:00,
2013-06-14 08:43:00,74.1,35.0,29.94,WSW,238,5.8,5.8,24,0.00,CLR,,0.00,WeatherDisplay:10.37,2013-06-14 15:43:00,
2013-06-14 08:48:00,74.7,34.4,29.94,SW,225,4.6,4.6,23,0.00,CLR,,0.00,WeatherDisplay:10.37,2013-06-14 15:48:00,
2013-06-14 08:53:00,75.1,34.8,29.94,West,280,4.6,4.6,23,0.00,CLR,,0.00,WeatherDisplay:10.37,2013-06-14 15:53:00,
2013-06-14 08:58:00,75.4,35.0,29.94,West,276,5.8,5.8,23,0.00,CLR,,0.00,WeatherDisplay:10.37,2013-06-14 15:58:00,
2013-06-14 09:03:00,76.0,34.4,29.94,West,276,2.3,2.3,22,0.00,CLR,,0.00,WeatherDisplay:10.37,2013-06-14 16:03:00,
2013-06-14 09:08:00,76.6,34.9,29.94,West,275,4.0,4.0,22,0.00,CLR,,0.00,WeatherDisplay:10.37,2013-06-14 16:08:00,
2013-06-14 09:13:00,76.9,35.1,29.94,West,259,3.5,3.5,22,0.00,CLR,,0.00,WeatherDisplay:10.37,2013-06-14 16:13:00,
2013-06-14 09:18:00,77.2,35.4,29.93,West,259,4.0,4.0,22,0.00,CLR,,0.00,WeatherDisplay:10.37,2013-06-14 16:18:00,
2013-06-14 09:23:00,77.4,35.6,29.93,WSW,252,3.5,3.5,22,0.00,CLR,,0.00,WeatherDisplay:10.37,2013-06-14 16:23:00,
2013-06-14 09:28:00,78.3,35.1,29.93,WSW,252,4.0,4.0,21,0.00,CLR,,0.00,WeatherDisplay:10.37,2013-06-14 16:28:00,
2013-06-14 09:36:00,79.2,35.9,29.93,SSW,202,2.3,2.3,21,0.00,CLR,,0.00,WeatherDisplay:10.37,2013-06-14 16:36:00,
2013-06-14 09:41:00,79.7,35.1,29.93,SSW,202,1.1,0.0,20,0.00,CLR,,0.00,WeatherDisplay:10.37,2013-06-14 16:41:00,
2013-06-14 09:46:00,80.9,36.1,29.93,East,92,3.5,3.5,20,0.00,CLR,,0.00,WeatherDisplay:10.37,2013-06-14 16:46:00,
2013-06-14 09:51:00,80.7,35.9,29.93,NE,45,3.5,3.5,20,0.00,CLR,,0.00,WeatherDisplay:10.37,2013-06-14 16:51:00,
2013-06-14 09:56:00,81.4,35.2,29.93,North,360,5.8,5.8,19,0.00,CLR,,0.00,WeatherDisplay:10.37,2013-06-14 16:56:00,
2013-06-14 10:01:00,82.0,34.3,29.93,North,360,2.3,2.3,18,0.00,CLR,,0.00,WeatherDisplay:10.37,2013-06-14 17:01:00,
2013-06-14 10:06:00,82.4,31.7,29.93,North,360,3.5,3.5,16,0.00,CLR,,0.00,WeatherDisplay:10.37,2013-06-14 17:06:00,
2013-06-14 10:11:00,82.1,32.9,29.92,NNW,335,3.5,3.5,17,0.00,CLR,,0.00,WeatherDisplay:10.37,2013-06-14 17:11:00,
2013-06-14 10:16:00,82.2,31.5,29.92,North,350,3.5,3.5,16,0.00,CLR,,0.00,WeatherDisplay:10.37,2013-06-14 17:16:00,
2013-06-14 10:21:00,82.7,33.4,29.92,North,351,6.9,6.9,17,0.00,CLR,,0.00,WeatherDisplay:10.37,2013-06-14 17:21:00,
2013-06-14 10:26:00,82.9,33.6,29.92,NNE,19,3.5,0.0,17,0.00,CLR,,0.00,WeatherDisplay:10.37,2013-06-14 17:26:00,
2013-06-14 10:31:00,83.6,34.2,29.92,NNE,19,4.0,4.0,17,0.00,CLR,,0.00,WeatherDisplay:10.37,2013-06-14 17:31:00,
2013-06-14 10:36:00,84.6,33.4,29.92,NNE,19,6.9,6.9,16,0.00,CLR,,0.00,WeatherDisplay:10.37,2013-06-14 17:36:00,
2013-06-14 10:41:00,84.7,31.9,29.92,NNE,21,6.9,6.9,15,0.00,CLR,,0.00,WeatherDisplay:10.37,2013-06-14 17:41:00,
2013-06-14 10:46:00,84.6,31.8,29.92,NNE,22,3.5,3.5,15,0.00,CLR,,0.00,WeatherDisplay:10.37,2013-06-14 17:46:00,
2013-06-14 10:51:00,83.7,31.1,29.92,North,5,10.4,10.4,15,0.00,CLR,,0.00,WeatherDisplay:10.37,2013-06-14 17:51:00,
2013-06-14 10:56:00,83.4,32.5,29.92,North,349,8.1,8.1,16,0.00,CLR,,0.00,WeatherDisplay:10.37,2013-06-14 17:56:00,
2013-06-14 11:01:00,83.2,32.3,29.92,North,355,6.9,6.9,16,0.00,CLR,,0.00,WeatherDisplay:10.37,2013-06-14 18:01:00,
2013-06-14 11:06:00,83.6,32.6,29.91,North,355,10.4,10.4,16,0.00,CLR,,0.00,WeatherDisplay:10.37,2013-06-14 18:06:00,
2013-06-14 11:11:00,83.9,32.9,29.91,North,355,5.0,5.0,16,0.00,CLR,,0.00,WeatherDisplay:10.37,2013-06-14 18:11:00,
2013-06-14 11:16:00,84.1,31.4,29.91,NNW,334,6.0,6.0,15,0.00,CLR,,0.00,WeatherDisplay:10.37,2013-06-14 18:16:00,
2013-06-14 11:21:00,84.6,31.8,29.91,NNE,30,12.7,12.7,15,0.00,CLR,,0.00,WeatherDisplay:10.37,2013-06-14 18:21:00,
2013-06-14 11:26:00,84.9,32.1,29.91,North,5,9.2,9.2,15,0.00,CLR,,0.00,WeatherDisplay:10.37,2013-06-14 18:26:00,
2013-06-14 11:31:00,84.5,31.8,29.91,NW,326,3.5,3.5,15,0.00,CLR,,0.00,WeatherDisplay:10.37,2013-06-14 18:31:00,
2013-06-14 11:36:00,85.2,32.3,29.91,NW,325,3.5,3.5,15,0.00,CLR,,0.00,WeatherDisplay:10.37,2013-06-14 18:36:00,
2013-06-14 11:41:00,86.3,33.2,29.90,NNW,327,10.4,10.4,15,0.00,CLR,,0.00,WeatherDisplay:10.37,2013-06-14 18:41:00,
2013-06-14 11:46:00,86.3,33.2,29.91,NNW,329,9.2,9.2,15,0.00,CLR,,0.00,WeatherDisplay:10.37,2013-06-14 18:46:00,
2013-06-14 11:51:00,86.1,31.3,29.90,NNW,329,3.5,3.5,14,0.00,CLR,,0.00,WeatherDisplay:10.37,2013-06-14 18:51:00,
2013-06-14 11:56:00,86.6,31.7,29.90,NNW,329,0.0,0.0,14,0.00,CLR,,0.00,WeatherDisplay:10.37,2013-06-14 18:56:00,
2013-06-14 12:01:00,87.7,32.6,29.90,NNW,329,5.8,5.8,14,0.00,CLR,,0.00,WeatherDisplay:10.37,2013-06-14 19:01:00,
2013-06-14 12:06:00,87.5,32.4,29.90,East,94,0.0,0.0,14,0.00,CLR,,0.00,WeatherDisplay:10.37,2013-06-14 19:06:00,
2013-06-14 12:11:00,87.4,32.3,29.90,North,10,9.2,9.2,14,0.00,CLR,,0.00,WeatherDisplay:10.37,2013-06-14 19:11:00,
2013-06-14 12:16:00,87.4,34.1,29.90,NNW,336,3.5,3.5,15,0.00,CLR,,0.00,WeatherDisplay:10.37,2013-06-14 19:16:00,
2013-06-14 12:21:00,88.2,33.0,29.90,NNW,336,3.5,3.5,14,0.00,CLR,,0.00,WeatherDisplay:10.37,2013-06-14 19:21:00,
2013-06-14 12:26:00,88.8,33.4,29.89,South,175,6.0,6.0,14,0.00,CLR,,0.00,WeatherDisplay:10.37,2013-06-14 19:26:00,
2013-06-14 12:31:00,88.3,33.1,29.89,SE,131,7.0,7.1,14,0.00,CLR,,0.00,WeatherDisplay:10.37,2013-06-14 19:31:00,
2013-06-14 12:36:00,88.4,31.3,29.89,NE,40,5.8,5.8,13,0.00,CLR,,0.00,WeatherDisplay:10.37,2013-06-14 19:36:00,
2013-06-14 12:41:00,88.8,31.6,29.89,NE,46,4.6,4.6,13,0.00,CLR,,0.00,WeatherDisplay:10.37,2013-06-14 19:41:00,
2013-06-14 12:46:00,89.1,31.8,29.89,NNE,19,3.5,3.5,13,0.00,CLR,,0.00,WeatherDisplay:10.37,2013-06-14 19:46:00,
2013-06-14 12:51:00,89.3,32.0,29.89,SE,145,14.0,14.0,13,0.00,CLR,,0.00,WeatherDisplay:10.37,2013-06-14 19:51:00,
2013-06-14 12:56:00,89.1,29.9,29.89,SE,126,11.5,11.5,12,0.00,CLR,,0.00,WeatherDisplay:10.37,2013-06-14 19:56:00,
2013-06-14 13:01:00,89.2,29.9,29.88,NE,44,10.4,10.4,12,0.00,CLR,,0.00,WeatherDisplay:10.37,2013-06-14 20:01:00,
2013-06-14 13:06:00,89.5,30.2,29.88,ENE,76,6.0,6.0,12,0.00,CLR,,0.00,WeatherDisplay:10.37,2013-06-14 20:06:00,
2013-06-14 13:11:00,89.1,29.9,29.88,ENE,78,3.5,3.8,12,0.00,CLR,,0.00,WeatherDisplay:10.37,2013-06-14 20:11:00,
2013-06-14 13:16:00,89.8,30.4,29.88,ENE,78,7.0,7.0,12,0.00,CLR,,0.00,WeatherDisplay:10.37,2013-06-14 20:16:00,
2013-06-14 13:21:00,89.7,30.3,29.88,ENE,78,4.6,4.6,12,0.00,CLR,,0.00,WeatherDisplay:10.37,2013-06-14 20:21:00,
2013-06-14 13:26:00,90.0,28.4,29.88,SSE,165,11.5,11.5,11,0.00,CLR,,0.00,WeatherDisplay:10.37,2013-06-14 20:26:00,
2013-06-14 13:31:00,89.8,30.4,29.88,SSE,165,8.1,8.1,12,0.00,CLR,,0.00,WeatherDisplay:10.37,2013-06-14 20:31:00,
2013-06-14 13:36:00,90.5,28.8,29.87,SSE,166,4.0,4.0,11,0.00,CLR,,0.00,WeatherDisplay:10.37,2013-06-14 20:36:00,
2013-06-14 13:41:00,90.4,28.7,29.87,SSE,165,4.6,4.6,11,0.00,CLR,,0.00,WeatherDisplay:10.37,2013-06-14 20:41:00,
2013-06-14 13:46:00,90.9,29.1,29.87,SSE,157,1.1,1.5,11,0.00,CLR,,0.00,WeatherDisplay:10.37,2013-06-14 20:46:00,
2013-06-14 13:51:00,90.7,29.0,29.87,SSE,157,6.9,6.9,11,0.00,CLR,,0.00,WeatherDisplay:10.37,2013-06-14 20:51:00,
2013-06-14 13:56:00,90.7,31.1,29.86,ESE,108,3.5,3.5,12,0.00,CLR,,0.00,WeatherDisplay:10.37,2013-06-14 20:56:00,
2013-06-14 14:01:00,90.8,31.2,29.86,East,83,9.2,9.2,12,0.00,CLR,,0.00,WeatherDisplay:10.37,2013-06-14 21:01:00,
2013-06-14 14:06:00,91.3,31.6,29.86,ESE,114,11.5,11.5,12,0.00,CLR,,0.00,WeatherDisplay:10.37,2013-06-14 21:06:00,
2013-06-14 14:11:00,90.4,30.9,29.86,ESE,114,3.5,3.5,12,0.00,CLR,,0.00,WeatherDisplay:10.37,2013-06-14 21:11:00,
2013-06-14 14:16:00,91.3,31.6,29.86,ESE,114,9.0,9.0,12,0.00,CLR,,0.00,WeatherDisplay:10.37,2013-06-14 21:16:00,
2013-06-14 14:21:00,92.0,32.1,29.86,SE,142,9.0,9.0,12,0.00,CLR,,0.00,WeatherDisplay:10.37,2013-06-14 21:21:00,
2013-06-14 14:26:00,92.2,32.3,29.85,SSW,209,6.0,6.0,12,0.00,CLR,,0.00,WeatherDisplay:10.37,2013-06-14 21:26:00,
2013-06-14 14:31:00,92.6,32.6,29.85,South,184,11.5,11.5,12,0.00,CLR,,0.00,WeatherDisplay:10.37,2013-06-14 21:31:00,
2013-06-14 14:36:00,92.4,32.4,29.85,South,184,4.6,4.6,12,0.00,CLR,,0.00,WeatherDisplay:10.37,2013-06-14 21:36:00,
2013-06-14 14:41:00,92.8,30.6,29.85,WNW,299,10.4,10.4,11,0.00,CLR,,0.00,WeatherDisplay:10.37,2013-06-14 21:41:00,
2013-06-14 14:46:00,92.4,32.4,29.84,SSW,199,17.0,17.0,12,0.00,CLR,,0.00,WeatherDisplay:10.37,2013-06-14 21:46:00,
2013-06-14 14:51:00,92.9,34.8,29.84,SSW,192,13.8,13.8,13,0.00,CLR,,0.00,WeatherDisplay:10.37,2013-06-14 21:51:00,
2013-06-14 14:56:00,93.6,35.4,29.84,SSE,149,11.5,11.5,13,0.00,CLR,,0.00,WeatherDisplay:10.37,2013-06-14 21:56:00,
2013-06-14 15:01:00,93.2,36.9,29.84,SSE,150,4.6,4.6,14,0.00,CLR,,0.00,WeatherDisplay:10.37,2013-06-14 22:01:00,
2013-06-14 15:06:00,93.4,37.1,29.84,SSE,150,12.7,12.7,14,0.00,CLR,,0.00,WeatherDisplay:10.37,2013-06-14 22:06:00,
2013-06-14 15:11:00,93.2,38.7,29.84,SSW,213,19.6,19.6,15,0.00,CLR,,0.00,WeatherDisplay:10.37,2013-06-14 22:11:00,
2013-06-14 15:16:00,92.9,38.4,29.83,South,190,18.4,18.4,15,0.00,CLR,,0.00,WeatherDisplay:10.37,2013-06-14 22:16:00,
2013-06-14 15:21:00,93.0,38.5,29.83,WSW,245,19.6,19.6,15,0.00,CLR,,0.00,WeatherDisplay:10.37,2013-06-14 22:21:00,
2013-06-14 15:26:00,92.8,32.7,29.84,SSW,196,21.0,21.0,12,0.00,CLR,,0.00,WeatherDisplay:10.37,2013-06-14 22:26:00,
2013-06-14 15:31:00,92.2,30.1,29.83,SW,214,19.6,19.6,11,0.00,CLR,,0.00,WeatherDisplay:10.37,2013-06-14 22:31:00,
2013-06-14 15:36:00,92.5,28.0,29.83,South,190,20.7,20.7,10,0.00,CLR,,0.00,WeatherDisplay:10.37,2013-06-14 22:36:00,
2013-06-14 15:41:00,92.9,25.7,29.83,SSW,205,18.4,18.4,9,0.00,CLR,,0.00,WeatherDisplay:10.37,2013-06-14 22:41:00,
2013-06-14 15:46:00,92.2,25.2,29.83,SW,218,19.6,19.6,9,0.00,CLR,,0.00,WeatherDisplay:10.37,2013-06-14 22:46:00,
2013-06-14 15:51:00,92.1,27.7,29.83,WSW,238,20.7,20.7,10,0.00,CLR,,0.00,WeatherDisplay:10.37,2013-06-14 22:51:00,
2013-06-14 15:56:00,91.7,22.0,29.83,SSW,202,21.9,21.9,8,0.00,CLR,,0.00,WeatherDisplay:10.37,2013-06-14 22:56:00,
2013-06-14 16:01:00,91.8,35.8,29.83,WSW,238,20.7,20.7,14,0.00,CLR,,0.00,WeatherDisplay:10.37,2013-06-14 23:01:00,
2013-06-14 16:06:00,91.4,31.6,29.83,SW,227,24.2,24.2,12,0.00,CLR,,0.00,WeatherDisplay:10.37,2013-06-14 23:06:00,
2013-06-14 16:11:00,91.3,31.6,29.83,SSW,213,19.6,19.6,12,0.00,CLR,,0.00,WeatherDisplay:10.37,2013-06-14 23:11:00,
2013-06-14 16:16:00,91.6,27.3,29.83,SSW,211,24.2,24.2,10,0.00,CLR,,0.00,WeatherDisplay:10.37,2013-06-14 23:16:00,
2013-06-14 16:21:00,91.2,27.0,29.83,WSW,240,20.7,20.7,10,0.00,CLR,,0.00,WeatherDisplay:10.37,2013-06-14 23:21:00,
2013-06-14 16:26:00,90.5,26.5,29.83,SW,221,26.5,26.5,10,0.00,CLR,,0.00,WeatherDisplay:10.37,2013-06-14 23:26:00,
2013-06-14 16:31:00,90.4,28.7,29.83,SSW,209,21.0,21.0,11,0.00,CLR,,0.00,WeatherDisplay:10.37,2013-06-14 23:31:00,
2013-06-14 16:36:00,90.2,23.7,29.83,SW,222,26.5,26.5,9,0.00,CLR,,0.00,WeatherDisplay:10.37,2013-06-14 23:36:00,
2013-06-14 16:41:00,90.4,32.9,29.83,SW,228,25.3,25.3,13,0.00,CLR,,0.00,WeatherDisplay:10.37,2013-06-14 23:41:00,
2013-06-14 16:46:00,90.1,36.2,29.83,SW,233,26.5,26.5,15,0.00,CLR,,0.00,WeatherDisplay:10.37,2013-06-14 23:46:00,
2013-06-14 16:51:00,89.3,37.2,29.83,SW,226,25.3,25.3,16,0.00,CLR,,0.00,WeatherDisplay:10.37,2013-06-14 23:51:00,
2013-06-14 16:56:00,89.0,37.0,29.82,SSW,199,25.3,25.3,16,0.00,CLR,,0.00,WeatherDisplay:10.37,2013-06-14 23:56:00,
2013-06-14 17:01:00,89.0,41.4,29.82,SSW,211,21.9,21.9,19,0.00,CLR,,0.00,WeatherDisplay:10.37,2013-06-15 00:01:00,
2013-06-14 17:06:00,88.9,39.9,29.82,SW,230,26.5,26.5,18,0.00,CLR,,0.00,WeatherDisplay:10.37,2013-06-15 00:06:00,
2013-06-14 17:11:00,88.9,39.9,29.82,SW,234,25.3,25.3,18,0.00,CLR,,0.00,WeatherDisplay:10.37,2013-06-15 00:11:00,
2013-06-14 17:16:00,88.6,39.7,29.83,WSW,250,20.7,20.7,18,0.00,CLR,,0.00,WeatherDisplay:10.37,2013-06-15 00:16:00,
2013-06-14 17:21:00,88.6,33.3,29.83,SW,222,20.7,20.7,14,0.00,CLR,,0.00,WeatherDisplay:10.37,2013-06-15 00:21:00,
2013-06-14 17:26:00,88.4,36.5,29.83,SW,228,23.0,23.0,16,0.00,CLR,,0.00,WeatherDisplay:10.37,2013-06-15 00:26:00,
2013-06-14 17:31:00,87.7,37.5,29.83,SW,236,25.3,25.3,17,0.00,CLR,,0.00,WeatherDisplay:10.37,2013-06-15 00:31:00,
2013-06-14 17:36:00,87.5,38.8,29.83,WSW,245,20.7,20.9,18,0.00,CLR,,0.00,WeatherDisplay:10.37,2013-06-15 00:36:00,
2013-06-14 17:41:00,86.9,39.7,29.83,SW,222,25.3,25.3,19,0.00,CLR,,0.00,WeatherDisplay:10.37,2013-06-15 00:41:00,
2013-06-14 17:46:00,86.7,39.5,29.83,SW,214,19.6,19.6,19,0.00,CLR,,0.00,WeatherDisplay:10.37,2013-06-15 00:46:00,
2013-06-14 17:51:00,87.1,41.2,29.83,WSW,244,19.6,19.6,20,0.00,CLR,,0.00,WeatherDisplay:10.37,2013-06-15 00:51:00,
2013-06-14 17:56:00,87.0,45.8,29.83,SW,236,19.6,19.6,24,0.00,CLR,,0.00,WeatherDisplay:10.37,2013-06-15 00:56:00,
2013-06-14 18:01:00,87.0,43.6,29.83,WSW,240,23.0,23.0,22,0.00,CLR,,0.00,WeatherDisplay:10.37,2013-06-15 01:01:00,
2013-06-14 18:06:00,86.6,44.4,29.82,WSW,250,17.3,17.3,23,0.00,CLR,,0.00,WeatherDisplay:10.37,2013-06-15 01:06:00,
2013-06-14 18:11:00,86.6,45.5,29.83,SW,215,16.1,16.1,24,0.00,CLR,,0.00,WeatherDisplay:10.37,2013-06-15 01:11:00,
2013-06-14 18:16:00,85.5,46.7,29.83,WSW,238,21.9,21.9,26,0.00,CLR,,0.00,WeatherDisplay:10.37,2013-06-15 01:16:00,
2013-06-14 18:21:00,85.5,44.6,29.83,WSW,254,20.7,20.7,24,0.00,CLR,,0.00,WeatherDisplay:10.37,2013-06-15 01:21:00,
2013-06-14 18:26:00,85.1,44.2,29.83,WSW,241,21.9,21.9,24,0.00,CLR,,0.00,WeatherDisplay:10.37,2013-06-15 01:26:00,
2013-06-14 18:31:00,84.9,45.1,29.83,SW,223,26.5,26.5,25,0.00,CLR,,0.00,WeatherDisplay:10.37,2013-06-15 01:31:00,
2013-06-14 18:36:00,84.6,45.9,29.83,WSW,248,18.4,18.4,26,0.00,CLR,,0.00,WeatherDisplay:10.37,2013-06-15 01:36:00,
2013-06-14 18:41:00,84.3,46.7,29.83,WSW,249,19.6,19.6,27,0.00,CLR,,0.00,WeatherDisplay:10.37,2013-06-15 01:41:00,
2013-06-14 18:46:00,84.0,45.4,29.83,WSW,237,21.9,21.9,26,0.00,CLR,,0.00,WeatherDisplay:10.37,2013-06-15 01:46:00,
2013-06-14 18:51:00,83.8,46.2,29.83,SSW,205,20.7,20.7,27,0.00,CLR,,0.00,WeatherDisplay:10.37,2013-06-15 01:51:00,
2013-06-14 18:56:00,83.5,47.0,29.83,WSW,249,19.6,19.6,28,0.00,CLR,,0.00,WeatherDisplay:10.37,2013-06-15 01:56:00,
2013-06-14 19:01:00,83.0,44.6,29.83,WSW,246,21.9,21.9,26,0.00,CLR,,0.00,WeatherDisplay:10.37,2013-06-15 02:01:00,
2013-06-14 19:06:00,82.5,46.1,29.83,SW,234,21.9,21.9,28,0.00,CLR,,0.00,WeatherDisplay:10.37,2013-06-15 02:06:00,
2013-06-14 19:11:00,82.3,45.9,29.84,SW,214,21.9,21.9,28,0.00,CLR,,0.00,WeatherDisplay:10.37,2013-06-15 02:11:00,
2013-06-14 19:16:00,81.9,46.5,29.83,SW,220,23.0,23.0,29,0.00,CLR,,0.00,WeatherDisplay:10.37,2013-06-15 02:16:00,
2013-06-14 19:21:00,81.4,47.0,29.84,SW,217,19.6,19.6,30,0.00,CLR,,0.00,WeatherDisplay:10.37,2013-06-15 02:21:00,
2013-06-14 19:26:00,80.9,46.6,29.84,SSW,205,18.4,18.4,30,0.00,CLR,,0.00,WeatherDisplay:10.37,2013-06-15 02:26:00,
2013-06-14 19:31:00,80.5,46.2,29.84,SW,217,18.4,18.4,30,0.00,CLR,,0.00,WeatherDisplay:10.37,2013-06-15 02:31:00,
2013-06-14 19:36:00,80.2,45.1,29.84,SW,221,23.0,23.0,29,0.00,CLR,,0.00,WeatherDisplay:10.37,2013-06-15 02:36:00,
2013-06-14 19:41:00,79.8,44.7,29.84,SW,219,16.1,16.1,29,0.00,CLR,,0.00,WeatherDisplay:10.37,2013-06-15 02:41:00,
2013-06-14 19:46:00,79.5,44.5,29.84,SW,215,20.7,20.7,29,0.00,CLR,,0.00,WeatherDisplay:10.37,2013-06-15 02:46:00,
2013-06-14 19:51:00,79.1,44.1,29.85,SW,227,16.1,16.1,29,0.00,CLR,,0.00,WeatherDisplay:10.37,2013-06-15 02:51:00,
2013-06-14 19:56:00,78.7,44.7,29.85,WSW,241,15.0,15.0,30,0.00,CLR,,0.00,WeatherDisplay:10.37,2013-06-15 02:56:00,
2013-06-14 20:01:00,78.2,43.3,29.85,West,263,16.1,16.1,29,0.00,CLR,,0.00,WeatherDisplay:10.37,2013-06-15 03:01:00,
2013-06-14 20:06:00,77.9,44.0,29.85,SW,217,16.1,16.1,30,0.00,CLR,,0.00,WeatherDisplay:10.37,2013-06-15 03:06:00,
2013-06-14 20:11:00,77.5,44.5,29.85,SW,221,15.0,15.0,31,0.00,CLR,,0.00,WeatherDisplay:10.37,2013-06-15 03:11:00,
2013-06-14 20:16:00,77.2,44.2,29.85,SW,235,15.0,15.0,31,0.00,CLR,,0.00,WeatherDisplay:10.37,2013-06-15 03:16:00,
2013-06-14 20:21:00,77.0,44.0,29.85,SSW,207,13.8,13.8,31,0.00,CLR,,0.00,WeatherDisplay:10.37,2013-06-15 03:21:00,
2013-06-14 20:26:00,76.5,43.6,29.85,SW,236,13.8,13.8,31,0.00,CLR,,0.00,WeatherDisplay:10.37,2013-06-15 03:26:00,
2013-06-14 20:31:00,76.0,44.0,29.86,SSW,205,15.0,15.0,32,0.00,CLR,,0.00,WeatherDisplay:10.37,2013-06-15 03:31:00,
2013-06-14 20:36:00,75.6,43.7,29.86,SW,218,16.1,16.1,32,0.00,CLR,,0.00,WeatherDisplay:10.37,2013-06-15 03:36:00,
2013-06-14 20:41:00,75.3,44.2,29.86,WSW,238,11.5,11.5,33,0.00,CLR,,0.00,WeatherDisplay:10.37,2013-06-15 03:41:00,
2013-06-14 20:46:00,75.0,43.9,29.86,WSW,244,13.0,13.0,33,0.00,CLR,,0.00,WeatherDisplay:10.37,2013-06-15 03:46:00,
2013-06-14 20:51:00,74.9,43.0,29.86,West,263,16.1,16.1,32,0.00,CLR,,0.00,WeatherDisplay:10.37,2013-06-15 03:51:00,
2013-06-14 20:56:00,74.8,43.8,29.86,WSW,258,19.6,19.6,33,0.00,CLR,,0.00,WeatherDisplay:10.37,2013-06-15 03:56:00,
2013-06-14 21:01:00,74.5,44.3,29.86,WSW,242,13.8,13.8,34,0.00,CLR,,0.00,WeatherDisplay:10.37,2013-06-15 04:01:00,
2013-06-14 21:02:00,74.4,44.2,29.86,West,259,15.0,15.0,34,0.00,CLR,,0.00,WeatherDisplay:10.37,2013-06-15 04:02:00,
2013-06-14 21:03:00,74.3,44.1,29.86,West,272,13.8,13.8,34,0.00,CLR,,0.00,WeatherDisplay:10.37,2013-06-15 04:03:00,
2013-06-14 21:08:00,74.2,43.2,29.86,West,267,13.8,13.8,33,0.00,CLR,,0.00,WeatherDisplay:10.37,2013-06-15 04:08:00,
2013-06-14 21:13:00,74.2,42.4,29.87,WSW,256,13.8,13.8,32,0.00,CLR,,0.00,WeatherDisplay:10.37,2013-06-15 04:13:00,
2013-06-14 21:18:00,74.1,42.3,29.87,WNW,285,12.7,12.7,32,0.00,CLR,,0.00,WeatherDisplay:10.37,2013-06-15 04:18:00,
2013-06-14 21:23:00,74.1,42.3,29.87,West,260,11.5,11.5,32,0.00,CLR,,0.00,WeatherDisplay:10.37,2013-06-15 04:23:00,
2013-06-14 21:28:00,74.0,42.3,29.87,West,271,16.1,16.1,32,0.00,CLR,,0.00,WeatherDisplay:10.37,2013-06-15 04:28:00,
2013-06-14 21:33:00,74.0,42.3,29.88,West,265,14.0,14.0,32,0.00,CLR,,0.00,WeatherDisplay:10.37,2013-06-15 04:33:00,
2013-06-14 21:38:00,74.0,43.1,29.88,WSW,248,17.3,17.3,33,0.00,CLR,,0.00,WeatherDisplay:10.37,2013-06-15 04:38:00,
2013-06-14 21:43:00,73.9,43.0,29.88,SW,235,12.7,12.7,33,0.00,CLR,,0.00,WeatherDisplay:10.37,2013-06-15 04:43:00,
2013-06-14 21:48:00,73.9,43.0,29.88,WSW,254,16.0,16.0,33,0.00,CLR,,0.00,WeatherDisplay:10.37,2013-06-15 04:48:00,
2013-06-14 21:53:00,73.9,43.0,29.88,West,261,12.0,12.0,33,0.00,CLR,,0.00,WeatherDisplay:10.37,2013-06-15 04:53:00,
2013-06-14 21:58:00,73.7,43.6,29.88,WSW,255,10.4,10.4,34,0.00,CLR,,0.00,WeatherDisplay:10.37,2013-06-15 04:58:00,
2013-06-14 22:04:00,73.3,43.2,29.88,West,260,11.5,11.5,34,0.00,CLR,,0.00,WeatherDisplay:10.37,2013-06-15 05:04:00,
2013-06-14 22:09:00,73.0,43.0,29.88,West,265,11.5,11.5,34,0.00,CLR,,0.00,WeatherDisplay:10.37,2013-06-15 05:09:00,
2013-06-14 22:14:00,72.8,42.8,29.89,WSW,252,11.5,11.5,34,0.00,CLR,,0.00,WeatherDisplay:10.37,2013-06-15 05:14:00,
2013-06-14 22:19:00,72.5,43.3,29.88,West,267,7.0,7.0,35,0.00,CLR,,0.00,WeatherDisplay:10.37,2013-06-15 05:19:00,
2013-06-14 22:24:00,72.3,43.1,29.88,West,273,10.4,10.4,35,0.00,CLR,,0.00,WeatherDisplay:10.37,2013-06-15 05:24:00,
2013-06-14 22:29:00,72.3,43.1,29.88,West,275,8.1,8.1,35,0.00,CLR,,0.00,WeatherDisplay:10.37,2013-06-15 05:29:00,
2013-06-14 22:34:00,72.2,42.3,29.88,West,277,10.4,10.4,34,0.00,CLR,,0.00,WeatherDisplay:10.37,2013-06-15 05:34:00,
2013-06-14 22:39:00,72.0,42.8,29.88,West,269,10.4,10.4,35,0.00,CLR,,0.00,WeatherDisplay:10.37,2013-06-15 05:39:00,
2013-06-14 22:44:00,71.6,42.5,29.88,West,263,6.9,6.9,35,0.00,CLR,,0.00,WeatherDisplay:10.37,2013-06-15 05:44:00,
2013-06-14 22:49:00,71.1,42.0,29.88,West,261,9.2,9.2,35,0.00,CLR,,0.00,WeatherDisplay:10.37,2013-06-15 05:49:00,
2013-06-14 22:54:00,70.4,41.4,29.88,West,263,10.4,10.4,35,0.00,CLR,,0.00,WeatherDisplay:10.37,2013-06-15 05:54:00,
2013-06-14 22:59:00,70.3,41.3,29.88,West,275,9.2,9.2,35,0.00,CLR,,0.00,WeatherDisplay:10.37,2013-06-15 05:59:00,
2013-06-14 23:04:00,70.2,41.3,29.88,WSW,252,6.9,6.9,35,0.00,CLR,,0.00,WeatherDisplay:10.37,2013-06-15 06:04:00,
2013-06-14 23:09:00,69.8,40.9,29.88,West,260,6.9,6.9,35,0.00,CLR,,0.00,WeatherDisplay:10.37,2013-06-15 06:09:00,
2013-06-14 23:14:00,69.5,40.6,29.88,West,260,5.8,5.8,35,0.00,CLR,,0.00,WeatherDisplay:10.37,2013-06-15 06:14:00,
2013-06-14 23:19:00,69.5,40.6,29.88,West,277,6.9,6.9,35,0.00,CLR,,0.00,WeatherDisplay:10.37,2013-06-15 06:19:00,
2013-06-14 23:24:00,69.5,40.6,29.88,West,270,9.2,9.2,35,0.00,CLR,,0.00,WeatherDisplay:10.37,2013-06-15 06:24:00,
2013-06-14 23:29:00,69.4,40.5,29.88,West,269,5.8,5.8,35,0.00,CLR,,0.00,WeatherDisplay:10.37,2013-06-15 06:29:00,
2013-06-14 23:34:00,69.1,40.3,29.88,West,268,4.6,4.6,35,0.00,CLR,,0.00,WeatherDisplay:10.37,2013-06-15 06:34:00,
2013-06-14 23:39:00,68.6,39.8,29.88,West,268,3.5,3.8,35,0.00,CLR,,0.00,WeatherDisplay:10.37,2013-06-15 06:39:00,
2013-06-14 23:44:00,68.3,40.3,29.88,West,268,5.8,5.8,36,0.00,CLR,,0.00,WeatherDisplay:10.37,2013-06-15 06:44:00,
2013-06-14 23:49:00,68.0,40.0,29.88,West,268,3.5,3.5,36,0.00,CLR,,0.00,WeatherDisplay:10.37,2013-06-15 06:49:00,
2013-06-14 23:54:00,67.7,39.8,29.88,West,269,4.0,4.0,36,0.00,CLR,,0.00,WeatherDisplay:10.37,2013-06-15 06:54:00,
2013-06-14 23:59:00,67.4,39.5,29.88,West,268,3.5,3.5,36,0.00,CLR,,0.00,WeatherDisplay:10.37,2013-06-15 06:59:00,